contact:dominique.lefevre@mio.osupytheas.fr, maurice.libes@osupytheas.fr, didier.mallarino@osupytheas.fr
Project:EMSO http://www.emso-fr.org/EMSO-France
Depth: 2436.0 m
Title:EMSO Ligure Ouest : Data MII capteur MICROCAT
DateTime_Computer,Latitude,Longitude,Temperature,Conductivity,Pressure,DateTime_Instrument
DateTime_Computer,Latitude,Longitude,degC,S m-1,dbar,DateTime_Instrument
2017-12-03T00:00:48Z,42.805,6.029,13.2937,4.59951,2471.934,2017-12-03T02:02:17Z
2017-12-03T00:03:51Z,42.805,6.029,13.2935,4.59951,2471.897,2017-12-03T02:05:20Z
2017-12-03T00:06:54Z,42.805,6.029,13.2935,4.59952,2471.934,2017-12-03T02:08:23Z
2017-12-03T00:09:57Z,42.805,6.029,13.2939,4.59951,2471.897,2017-12-03T02:11:26Z
2017-12-03T00:13:00Z,42.805,6.029,13.2937,4.59952,2471.934,2017-12-03T02:14:29Z
2017-12-03T00:16:03Z,42.805,6.029,13.2938,4.59952,2471.934,2017-12-03T02:17:31Z
2017-12-03T00:19:05Z,42.805,6.029,13.2936,4.59950,2471.897,2017-12-03T02:20:34Z
2017-12-03T00:22:08Z,42.805,6.029,13.2935,4.59952,2471.957,2017-12-03T02:23:37Z
2017-12-03T00:25:11Z,42.805,6.029,13.2934,4.59952,2471.934,2017-12-03T02:26:40Z
2017-12-03T00:28:14Z,42.805,6.029,13.2942,4.59951,2471.897,2017-12-03T02:29:43Z
2017-12-03T00:31:17Z,42.805,6.029,13.2936,4.59952,2471.897,2017-12-03T02:32:46Z
2017-12-03T00:34:20Z,42.805,6.029,13.2937,4.59951,2471.919,2017-12-03T02:35:49Z
2017-12-03T00:37:23Z,42.805,6.029,13.2935,4.59952,2471.889,2017-12-03T02:38:52Z
2017-12-03T00:40:26Z,42.805,6.029,13.2935,4.59952,2471.934,2017-12-03T02:41:54Z
2017-12-03T00:43:28Z,42.805,6.029,13.2936,4.59952,2471.912,2017-12-03T02:44:57Z
2017-12-03T00:46:31Z,42.805,6.029,13.2937,4.59953,2471.874,2017-12-03T02:48:00Z
2017-12-03T00:49:34Z,42.805,6.029,13.2940,4.59952,2471.912,2017-12-03T02:51:03Z
2017-12-03T00:52:37Z,42.805,6.029,13.2935,4.59951,2471.912,2017-12-03T02:54:06Z
2017-12-03T00:55:40Z,42.805,6.029,13.2932,4.59953,2471.912,2017-12-03T02:57:09Z
2017-12-03T00:58:43Z,42.805,6.029,13.2940,4.59952,2471.897,2017-12-03T03:00:12Z
2017-12-03T01:01:46Z,42.805,6.029,13.2935,4.59951,2471.897,2017-12-03T03:03:15Z
2017-12-03T01:04:49Z,42.805,6.029,13.2939,4.59950,2471.912,2017-12-03T03:06:18Z
2017-12-03T01:07:52Z,42.805,6.029,13.2934,4.59951,2471.934,2017-12-03T03:09:20Z
2017-12-03T01:10:54Z,42.805,6.029,13.2936,4.59952,2471.874,2017-12-03T03:12:23Z
2017-12-03T01:13:57Z,42.805,6.029,13.2937,4.59952,2471.919,2017-12-03T03:15:26Z
2017-12-03T01:17:00Z,42.805,6.029,13.2933,4.59953,2471.912,2017-12-03T03:18:29Z
2017-12-03T01:20:03Z,42.805,6.029,13.2934,4.59952,2471.934,2017-12-03T03:21:32Z
2017-12-03T01:23:06Z,42.805,6.029,13.2934,4.59952,2471.934,2017-12-03T03:24:35Z
2017-12-03T01:26:09Z,42.805,6.029,13.2935,4.59952,2471.934,2017-12-03T03:27:38Z
2017-12-03T01:29:12Z,42.805,6.029,13.2936,4.59952,2471.919,2017-12-03T03:30:41Z
2017-12-03T01:32:15Z,42.805,6.029,13.2939,4.59951,2471.919,2017-12-03T03:33:44Z
2017-12-03T01:35:18Z,42.805,6.029,13.2937,4.59952,2471.897,2017-12-03T03:36:46Z
2017-12-03T01:38:20Z,42.805,6.029,13.2939,4.59952,2471.934,2017-12-03T03:39:49Z
2017-12-03T01:41:23Z,42.805,6.029,13.2935,4.59952,2471.912,2017-12-03T03:42:52Z
2017-12-03T01:44:26Z,42.805,6.029,13.2935,4.59951,2471.934,2017-12-03T03:45:55Z
2017-12-03T01:47:29Z,42.805,6.029,13.2936,4.59952,2471.912,2017-12-03T03:48:58Z
2017-12-03T01:50:32Z,42.805,6.029,13.2936,4.59952,2471.957,2017-12-03T03:52:01Z
2017-12-03T01:53:35Z,42.805,6.029,13.2933,4.59952,2471.912,2017-12-03T03:55:04Z
2017-12-03T01:56:38Z,42.805,6.029,13.2936,4.59951,2471.919,2017-12-03T03:58:07Z
2017-12-03T01:59:41Z,42.805,6.029,13.2935,4.59952,2471.934,2017-12-03T04:01:10Z
2017-12-03T02:02:44Z,42.805,6.029,13.2937,4.59952,2471.942,2017-12-03T04:04:12Z
2017-12-03T02:05:46Z,42.805,6.029,13.2933,4.59952,2471.934,2017-12-03T04:07:15Z
2017-12-03T02:08:49Z,42.805,6.029,13.2935,4.59951,2471.957,2017-12-03T04:10:18Z
2017-12-03T02:11:52Z,42.805,6.029,13.2935,4.59951,2471.919,2017-12-03T04:13:21Z
2017-12-03T02:14:55Z,42.805,6.029,13.2933,4.59951,2471.942,2017-12-03T04:16:24Z
2017-12-03T02:17:58Z,42.805,6.029,13.2937,4.59952,2471.942,2017-12-03T04:19:27Z
2017-12-03T02:21:01Z,42.805,6.029,13.2936,4.59951,2471.942,2017-12-03T04:22:30Z
2017-12-03T02:24:04Z,42.805,6.029,13.2932,4.59951,2471.942,2017-12-03T04:25:33Z
2017-12-03T02:27:07Z,42.805,6.029,13.2935,4.59951,2471.957,2017-12-03T04:28:36Z
2017-12-03T02:30:10Z,42.805,6.029,13.2934,4.59951,2471.942,2017-12-03T04:31:38Z
2017-12-03T02:33:12Z,42.805,6.029,13.2935,4.59952,2471.979,2017-12-03T04:34:41Z
2017-12-03T02:36:15Z,42.805,6.029,13.2936,4.59952,2471.979,2017-12-03T04:37:44Z
2017-12-03T02:39:18Z,42.805,6.029,13.2937,4.59951,2471.964,2017-12-03T04:40:47Z
2017-12-03T02:42:21Z,42.805,6.029,13.2933,4.59952,2471.987,2017-12-03T04:43:50Z
2017-12-03T02:45:24Z,42.805,6.029,13.2933,4.59951,2472.01,2017-12-03T04:46:53Z
2017-12-03T02:48:27Z,42.805,6.029,13.2935,4.59951,2471.964,2017-12-03T04:49:56Z
2017-12-03T02:51:30Z,42.805,6.029,13.2939,4.59952,2471.979,2017-12-03T04:52:59Z
2017-12-03T02:54:33Z,42.805,6.029,13.2934,4.59952,2472.024,2017-12-03T04:56:02Z
2017-12-03T02:57:36Z,42.805,6.029,13.2937,4.59952,2472.016,2017-12-03T04:59:04Z
2017-12-03T03:00:38Z,42.805,6.029,13.2933,4.59952,2472.002,2017-12-03T05:02:07Z
2017-12-03T03:03:41Z,42.805,6.029,13.2932,4.59951,2471.987,2017-12-03T05:05:10Z
2017-12-03T03:06:44Z,42.805,6.029,13.2939,4.59952,2471.987,2017-12-03T05:08:13Z
2017-12-03T03:09:47Z,42.805,6.029,13.2938,4.59952,2472.024,2017-12-03T05:11:16Z
2017-12-03T03:12:50Z,42.805,6.029,13.2938,4.59952,2472.002,2017-12-03T05:14:19Z
2017-12-03T03:15:53Z,42.805,6.029,13.2935,4.59952,2472.024,2017-12-03T05:17:22Z
2017-12-03T03:18:56Z,42.805,6.029,13.2932,4.59952,2471.964,2017-12-03T05:20:25Z
2017-12-03T03:21:59Z,42.805,6.029,13.2936,4.59952,2472.002,2017-12-03T05:23:28Z
2017-12-03T03:25:02Z,42.805,6.029,13.2941,4.59952,2472.024,2017-12-03T05:26:30Z
2017-12-03T03:28:04Z,42.805,6.029,13.2935,4.59952,2472.01,2017-12-03T05:29:33Z
2017-12-03T03:31:07Z,42.805,6.029,13.2937,4.59952,2472.047,2017-12-03T05:32:36Z
2017-12-03T03:34:10Z,42.805,6.029,13.2937,4.59951,2472.047,2017-12-03T05:35:39Z
2017-12-03T03:37:13Z,42.805,6.029,13.2935,4.59953,2472.024,2017-12-03T05:38:42Z
2017-12-03T03:40:16Z,42.805,6.029,13.2932,4.59952,2472.047,2017-12-03T05:41:45Z
2017-12-03T03:43:19Z,42.805,6.029,13.2933,4.59952,2472.055,2017-12-03T05:44:48Z
2017-12-03T03:46:22Z,42.805,6.029,13.2939,4.59952,2472.092,2017-12-03T05:47:51Z
2017-12-03T03:49:25Z,42.805,6.029,13.2939,4.59953,2472.055,2017-12-03T05:50:53Z
2017-12-03T03:52:27Z,42.805,6.029,13.2936,4.59952,2472.069,2017-12-03T05:53:56Z
2017-12-03T03:55:30Z,42.805,6.029,13.2935,4.59952,2472.077,2017-12-03T05:56:59Z
2017-12-03T03:58:33Z,42.805,6.029,13.2936,4.59953,2472.1,2017-12-03T06:00:02Z
2017-12-03T04:01:36Z,42.805,6.029,13.2935,4.59952,2472.069,2017-12-03T06:03:05Z
2017-12-03T04:04:39Z,42.805,6.029,13.2935,4.59953,2472.069,2017-12-03T06:06:08Z
2017-12-03T04:07:42Z,42.805,6.029,13.2934,4.59952,2472.077,2017-12-03T06:09:11Z
2017-12-03T04:10:45Z,42.805,6.029,13.2932,4.59953,2472.092,2017-12-03T06:12:14Z
2017-12-03T04:13:48Z,42.805,6.029,13.2935,4.59953,2472.115,2017-12-03T06:15:17Z
2017-12-03T04:16:51Z,42.805,6.029,13.2939,4.59952,2472.077,2017-12-03T06:18:19Z
2017-12-03T04:19:53Z,42.805,6.029,13.2934,4.59953,2472.115,2017-12-03T06:21:22Z
2017-12-03T04:22:56Z,42.805,6.029,13.2939,4.59953,2472.115,2017-12-03T06:24:25Z
2017-12-03T04:25:59Z,42.805,6.029,13.2935,4.59953,2472.129,2017-12-03T06:27:28Z
2017-12-03T04:29:02Z,42.805,6.029,13.2933,4.59953,2472.123,2017-12-03T06:30:31Z
2017-12-03T04:32:05Z,42.805,6.029,13.2935,4.59953,2472.115,2017-12-03T06:33:34Z
2017-12-03T04:35:08Z,42.805,6.029,13.2935,4.59953,2472.1,2017-12-03T06:36:37Z
2017-12-03T04:38:11Z,42.805,6.029,13.2935,4.59953,2472.115,2017-12-03T06:39:40Z
2017-12-03T04:41:14Z,42.805,6.029,13.2935,4.59953,2472.115,2017-12-03T06:42:43Z
2017-12-03T04:44:17Z,42.805,6.029,13.2937,4.59953,2472.123,2017-12-03T06:45:45Z
2017-12-03T04:47:19Z,42.805,6.029,13.2934,4.59952,2472.123,2017-12-03T06:48:48Z
2017-12-03T04:50:22Z,42.805,6.029,13.2937,4.59953,2472.123,2017-12-03T06:51:51Z
2017-12-03T04:53:25Z,42.805,6.029,13.2939,4.59953,2472.137,2017-12-03T06:54:54Z
2017-12-03T04:56:28Z,42.805,6.029,13.2935,4.59953,2472.145,2017-12-03T06:57:57Z
2017-12-03T04:59:31Z,42.805,6.029,13.2935,4.59953,2472.1,2017-12-03T07:01:00Z
2017-12-03T05:02:34Z,42.805,6.029,13.2933,4.59953,2472.16,2017-12-03T07:04:03Z
2017-12-03T05:05:37Z,42.805,6.029,13.2933,4.59953,2472.123,2017-12-03T07:07:06Z
2017-12-03T05:08:40Z,42.805,6.029,13.2936,4.59955,2472.145,2017-12-03T07:10:08Z
2017-12-03T05:11:42Z,42.805,6.029,13.2938,4.59953,2472.16,2017-12-03T07:13:11Z
2017-12-03T05:14:45Z,42.805,6.029,13.2935,4.59953,2472.19,2017-12-03T07:16:14Z
2017-12-03T05:17:48Z,42.805,6.029,13.2933,4.59953,2472.16,2017-12-03T07:19:17Z
2017-12-03T05:20:51Z,42.805,6.029,13.2938,4.59952,2472.168,2017-12-03T07:22:20Z
2017-12-03T05:23:54Z,42.805,6.029,13.2935,4.59953,2472.182,2017-12-03T07:25:23Z
2017-12-03T05:26:57Z,42.805,6.029,13.2934,4.59953,2472.182,2017-12-03T07:28:26Z
2017-12-03T05:30:00Z,42.805,6.029,13.2931,4.59953,2472.168,2017-12-03T07:31:29Z
2017-12-03T05:33:03Z,42.805,6.029,13.2938,4.59952,2472.19,2017-12-03T07:34:32Z
2017-12-03T05:36:06Z,42.805,6.029,13.2936,4.59954,2472.205,2017-12-03T07:37:35Z
2017-12-03T05:39:09Z,42.805,6.029,13.2936,4.59953,2472.168,2017-12-03T07:40:37Z
2017-12-03T05:42:11Z,42.805,6.029,13.2935,4.59953,2472.19,2017-12-03T07:43:40Z
2017-12-03T05:45:14Z,42.805,6.029,13.2936,4.59953,2472.19,2017-12-03T07:46:43Z
2017-12-03T05:48:17Z,42.805,6.029,13.2935,4.59953,2472.19,2017-12-03T07:49:46Z
2017-12-03T05:51:20Z,42.805,6.029,13.2937,4.59953,2472.205,2017-12-03T07:52:49Z
2017-12-03T05:54:23Z,42.805,6.029,13.2933,4.59953,2472.168,2017-12-03T07:55:52Z
2017-12-03T05:57:26Z,42.805,6.029,13.2937,4.59953,2472.227,2017-12-03T07:58:55Z
2017-12-03T06:00:29Z,42.805,6.029,13.2933,4.59953,2472.16,2017-12-03T08:01:58Z
2017-12-03T06:03:32Z,42.805,6.029,13.2932,4.59954,2472.19,2017-12-03T08:05:00Z
2017-12-03T06:06:34Z,42.805,6.029,13.2939,4.59953,2472.205,2017-12-03T08:08:03Z
2017-12-03T06:09:37Z,42.805,6.029,13.2940,4.59954,2472.205,2017-12-03T08:11:06Z
2017-12-03T06:12:40Z,42.805,6.029,13.2937,4.59953,2472.168,2017-12-03T08:14:09Z
2017-12-03T06:15:43Z,42.805,6.029,13.2935,4.59953,2472.205,2017-12-03T08:17:12Z
2017-12-03T06:18:46Z,42.805,6.029,13.2935,4.59954,2472.213,2017-12-03T08:20:15Z
2017-12-03T06:21:49Z,42.805,6.029,13.2937,4.59953,2472.176,2017-12-03T08:23:18Z
2017-12-03T06:24:52Z,42.805,6.029,13.2931,4.59953,2472.205,2017-12-03T08:26:21Z
2017-12-03T06:27:55Z,42.805,6.029,13.2936,4.59954,2472.227,2017-12-03T08:29:24Z
2017-12-03T06:30:58Z,42.805,6.029,13.2939,4.59954,2472.213,2017-12-03T08:32:26Z
2017-12-03T06:34:00Z,42.805,6.029,13.2935,4.59953,2472.205,2017-12-03T08:35:29Z
2017-12-03T06:37:03Z,42.805,6.029,13.2934,4.59954,2472.213,2017-12-03T08:38:32Z
2017-12-03T06:40:06Z,42.805,6.029,13.2939,4.59953,2472.213,2017-12-03T08:41:35Z
2017-12-03T06:43:09Z,42.805,6.029,13.2935,4.59954,2472.227,2017-12-03T08:44:38Z
2017-12-03T06:46:12Z,42.805,6.029,13.2938,4.59953,2472.227,2017-12-03T08:47:41Z
2017-12-03T06:49:15Z,42.805,6.029,13.2935,4.59954,2472.227,2017-12-03T08:50:44Z
2017-12-03T06:52:18Z,42.805,6.029,13.2935,4.59953,2472.258,2017-12-03T08:53:47Z
2017-12-03T06:55:21Z,42.805,6.029,13.2935,4.59954,2472.19,2017-12-03T08:56:50Z
2017-12-03T06:58:24Z,42.805,6.029,13.2935,4.59953,2472.25,2017-12-03T08:59:52Z
2017-12-03T07:01:26Z,42.805,6.029,13.2936,4.59953,2472.227,2017-12-03T09:02:55Z
2017-12-03T07:04:29Z,42.805,6.029,13.2933,4.59953,2472.272,2017-12-03T09:05:58Z
2017-12-03T07:07:32Z,42.805,6.029,13.2933,4.59954,2472.213,2017-12-03T09:09:01Z
2017-12-03T07:10:35Z,42.805,6.029,13.2935,4.59953,2472.227,2017-12-03T09:12:04Z
2017-12-03T07:13:38Z,42.805,6.029,13.2938,4.59953,2472.272,2017-12-03T09:15:07Z
2017-12-03T07:16:41Z,42.805,6.029,13.2936,4.59953,2472.236,2017-12-03T09:18:10Z
2017-12-03T07:19:44Z,42.805,6.029,13.2932,4.59954,2472.227,2017-12-03T09:21:13Z
2017-12-03T07:22:47Z,42.805,6.029,13.2938,4.59953,2472.25,2017-12-03T09:24:16Z
2017-12-03T07:25:50Z,42.805,6.029,13.2938,4.59953,2472.25,2017-12-03T09:27:18Z
2017-12-03T07:28:52Z,42.805,6.029,13.2937,4.59954,2472.205,2017-12-03T09:30:21Z
2017-12-03T07:31:55Z,42.805,6.029,13.2938,4.59953,2472.236,2017-12-03T09:33:24Z
2017-12-03T07:34:58Z,42.805,6.029,13.2940,4.59953,2472.22,2017-12-03T09:36:27Z
2017-12-03T07:38:01Z,42.805,6.029,13.2934,4.59953,2472.227,2017-12-03T09:39:30Z
2017-12-03T07:41:04Z,42.805,6.029,13.2939,4.59953,2472.213,2017-12-03T09:42:33Z
2017-12-03T07:44:07Z,42.805,6.029,13.2935,4.59953,2472.227,2017-12-03T09:45:36Z
2017-12-03T07:47:10Z,42.805,6.029,13.2935,4.59954,2472.236,2017-12-03T09:48:39Z
2017-12-03T07:50:13Z,42.805,6.029,13.2940,4.59954,2472.227,2017-12-03T09:51:41Z
2017-12-03T07:53:16Z,42.805,6.029,13.2937,4.59953,2472.227,2017-12-03T09:54:44Z
2017-12-03T07:56:18Z,42.805,6.029,13.2938,4.59953,2472.213,2017-12-03T09:57:47Z
2017-12-03T07:59:21Z,42.805,6.029,13.2936,4.59955,2472.19,2017-12-03T10:00:50Z
2017-12-03T08:02:24Z,42.805,6.029,13.2935,4.59955,2472.227,2017-12-03T10:03:53Z
2017-12-03T08:05:27Z,42.805,6.029,13.2943,4.59954,2472.236,2017-12-03T10:06:56Z
2017-12-03T08:08:30Z,42.805,6.029,13.2935,4.59954,2472.227,2017-12-03T10:09:59Z
2017-12-03T08:11:33Z,42.805,6.029,13.2935,4.59953,2472.205,2017-12-03T10:13:02Z
2017-12-03T08:14:36Z,42.805,6.029,13.2935,4.59954,2472.25,2017-12-03T10:16:05Z
2017-12-03T08:17:39Z,42.805,6.029,13.2935,4.59953,2472.213,2017-12-03T10:19:08Z
2017-12-03T08:20:41Z,42.805,6.029,13.2937,4.59954,2472.227,2017-12-03T10:22:10Z
2017-12-03T08:23:44Z,42.805,6.029,13.2935,4.59955,2472.205,2017-12-03T10:25:13Z
2017-12-03T08:26:47Z,42.805,6.029,13.2935,4.59953,2472.19,2017-12-03T10:28:16Z
2017-12-03T08:29:50Z,42.805,6.029,13.2937,4.59954,2472.25,2017-12-03T10:31:19Z
2017-12-03T08:32:53Z,42.805,6.029,13.2937,4.59954,2472.227,2017-12-03T10:34:22Z
2017-12-03T08:35:56Z,42.805,6.029,13.2933,4.59953,2472.205,2017-12-03T10:37:25Z
2017-12-03T08:38:59Z,42.805,6.029,13.2936,4.59953,2472.205,2017-12-03T10:40:28Z
2017-12-03T08:42:02Z,42.805,6.029,13.2935,4.59953,2472.227,2017-12-03T10:43:31Z
2017-12-03T08:45:05Z,42.805,6.029,13.2933,4.59953,2472.182,2017-12-03T10:46:34Z
2017-12-03T08:48:08Z,42.805,6.029,13.2937,4.59953,2472.227,2017-12-03T10:49:36Z
2017-12-03T08:51:10Z,42.805,6.029,13.2939,4.59953,2472.213,2017-12-03T10:52:39Z
2017-12-03T08:54:13Z,42.805,6.029,13.2934,4.59953,2472.168,2017-12-03T10:55:42Z
2017-12-03T08:57:16Z,42.805,6.029,13.2935,4.59954,2472.205,2017-12-03T10:58:45Z
2017-12-03T09:00:19Z,42.805,6.029,13.2935,4.59954,2472.182,2017-12-03T11:01:48Z
2017-12-03T09:03:22Z,42.805,6.029,13.2937,4.59954,2472.205,2017-12-03T11:04:51Z
2017-12-03T09:06:25Z,42.805,6.029,13.2943,4.59954,2472.227,2017-12-03T11:07:54Z
2017-12-03T09:09:28Z,42.805,6.029,13.2934,4.59953,2472.16,2017-12-03T11:10:57Z
2017-12-03T09:12:31Z,42.805,6.029,13.2937,4.59953,2472.19,2017-12-03T11:14:00Z
2017-12-03T09:15:34Z,42.805,6.029,13.2935,4.59954,2472.205,2017-12-03T11:17:02Z
2017-12-03T09:18:36Z,42.805,6.029,13.2935,4.59954,2472.213,2017-12-03T11:20:05Z
2017-12-03T09:21:39Z,42.805,6.029,13.2938,4.59954,2472.205,2017-12-03T11:23:08Z
2017-12-03T09:24:42Z,42.805,6.029,13.2935,4.59953,2472.205,2017-12-03T11:26:11Z
2017-12-03T09:27:45Z,42.805,6.029,13.2939,4.59953,2472.168,2017-12-03T11:29:14Z
2017-12-03T09:30:48Z,42.805,6.029,13.2933,4.59954,2472.182,2017-12-03T11:32:17Z
2017-12-03T09:33:51Z,42.805,6.029,13.2937,4.59954,2472.182,2017-12-03T11:35:20Z
2017-12-03T09:36:54Z,42.805,6.029,13.2933,4.59954,2472.205,2017-12-03T11:38:23Z
2017-12-03T09:39:57Z,42.805,6.029,13.2934,4.59954,2472.182,2017-12-03T11:41:26Z
2017-12-03T09:43:00Z,42.805,6.029,13.2935,4.59953,2472.19,2017-12-03T11:44:28Z
2017-12-03T09:46:02Z,42.805,6.029,13.2935,4.59954,2472.168,2017-12-03T11:47:31Z
2017-12-03T09:49:05Z,42.805,6.029,13.2938,4.59953,2472.145,2017-12-03T11:50:34Z
2017-12-03T09:52:08Z,42.805,6.029,13.2939,4.59954,2472.168,2017-12-03T11:53:37Z
2017-12-03T09:55:11Z,42.805,6.029,13.2940,4.59954,2472.145,2017-12-03T11:56:40Z
2017-12-03T09:58:14Z,42.805,6.029,13.2937,4.59955,2472.16,2017-12-03T11:59:43Z
2017-12-03T10:01:17Z,42.805,6.029,13.2939,4.59954,2472.182,2017-12-03T12:02:46Z
2017-12-03T10:04:20Z,42.805,6.029,13.2935,4.59954,2472.182,2017-12-03T12:05:49Z
2017-12-03T10:07:23Z,42.805,6.029,13.2933,4.59953,2472.19,2017-12-03T12:08:52Z
2017-12-03T10:10:26Z,42.805,6.029,13.2936,4.59953,2472.182,2017-12-03T12:11:55Z
2017-12-03T10:13:28Z,42.805,6.029,13.2940,4.59954,2472.16,2017-12-03T12:14:57Z
2017-12-03T10:16:31Z,42.805,6.029,13.2937,4.59954,2472.182,2017-12-03T12:18:00Z
2017-12-03T10:19:34Z,42.805,6.029,13.2934,4.59954,2472.152,2017-12-03T12:21:03Z
2017-12-03T10:22:37Z,42.805,6.029,13.2935,4.59954,2472.182,2017-12-03T12:24:06Z
2017-12-03T10:25:40Z,42.805,6.029,13.2937,4.59955,2472.145,2017-12-03T12:27:09Z
2017-12-03T10:28:43Z,42.805,6.029,13.2939,4.59953,2472.145,2017-12-03T12:30:12Z
2017-12-03T10:31:46Z,42.805,6.029,13.2938,4.59953,2472.123,2017-12-03T12:33:15Z
2017-12-03T10:34:49Z,42.805,6.029,13.2933,4.59953,2472.16,2017-12-03T12:36:18Z
2017-12-03T10:37:52Z,42.805,6.029,13.2933,4.59953,2472.123,2017-12-03T12:39:21Z
2017-12-03T10:40:55Z,42.805,6.029,13.2939,4.59954,2472.115,2017-12-03T12:42:23Z
2017-12-03T10:43:57Z,42.805,6.029,13.2938,4.59953,2472.137,2017-12-03T12:45:26Z
2017-12-03T10:47:00Z,42.805,6.029,13.2934,4.59953,2472.16,2017-12-03T12:48:29Z
2017-12-03T10:50:03Z,42.805,6.029,13.2937,4.59953,2472.145,2017-12-03T12:51:32Z
2017-12-03T10:53:06Z,42.805,6.029,13.2940,4.59954,2472.145,2017-12-03T12:54:35Z
2017-12-03T10:56:09Z,42.805,6.029,13.2940,4.59954,2472.16,2017-12-03T12:57:38Z
2017-12-03T10:59:12Z,42.805,6.029,13.2937,4.59954,2472.123,2017-12-03T13:00:41Z
2017-12-03T11:02:15Z,42.805,6.029,13.2937,4.59953,2472.123,2017-12-03T13:03:44Z
2017-12-03T11:05:18Z,42.805,6.029,13.2935,4.59954,2472.115,2017-12-03T13:06:47Z
2017-12-03T11:08:21Z,42.805,6.029,13.2936,4.59953,2472.137,2017-12-03T13:09:49Z
2017-12-03T11:11:23Z,42.805,6.029,13.2935,4.59954,2472.123,2017-12-03T13:12:52Z
2017-12-03T11:14:26Z,42.805,6.029,13.2935,4.59953,2472.123,2017-12-03T13:15:55Z
2017-12-03T11:17:29Z,42.805,6.029,13.2940,4.59954,2472.123,2017-12-03T13:18:58Z
2017-12-03T11:20:32Z,42.805,6.029,13.2935,4.59953,2472.115,2017-12-03T13:22:01Z
2017-12-03T11:23:35Z,42.805,6.029,13.2939,4.59954,2472.115,2017-12-03T13:25:04Z
2017-12-03T11:26:38Z,42.805,6.029,13.2936,4.59953,2472.115,2017-12-03T13:28:07Z
2017-12-03T11:29:41Z,42.805,6.029,13.2936,4.59954,2472.092,2017-12-03T13:31:10Z
2017-12-03T11:32:44Z,42.805,6.029,13.2935,4.59954,2472.115,2017-12-03T13:34:13Z
2017-12-03T11:35:47Z,42.805,6.029,13.2940,4.59954,2472.092,2017-12-03T13:37:15Z
2017-12-03T11:38:49Z,42.805,6.029,13.2940,4.59954,2472.115,2017-12-03T13:40:18Z
2017-12-03T11:41:52Z,42.805,6.029,13.2936,4.59954,2472.115,2017-12-03T13:43:21Z
2017-12-03T11:44:55Z,42.805,6.029,13.2939,4.59954,2472.077,2017-12-03T13:46:24Z
2017-12-03T11:47:58Z,42.805,6.029,13.2936,4.59954,2472.077,2017-12-03T13:49:27Z
2017-12-03T11:51:01Z,42.805,6.029,13.2940,4.59955,2472.115,2017-12-03T13:52:30Z
2017-12-03T11:54:04Z,42.805,6.029,13.2939,4.59955,2472.077,2017-12-03T13:55:33Z
2017-12-03T11:57:07Z,42.805,6.029,13.2938,4.59955,2472.092,2017-12-03T13:58:36Z
2017-12-03T12:00:10Z,42.805,6.029,13.2934,4.59954,2472.115,2017-12-03T14:01:39Z
2017-12-03T12:03:13Z,42.805,6.029,13.2935,4.59955,2472.092,2017-12-03T14:04:41Z
2017-12-03T12:06:15Z,42.805,6.029,13.2935,4.59955,2472.115,2017-12-03T14:07:44Z
2017-12-03T12:09:18Z,42.805,6.029,13.2939,4.59954,2472.069,2017-12-03T14:10:47Z
2017-12-03T12:12:21Z,42.805,6.029,13.2937,4.59954,2472.092,2017-12-03T14:13:50Z
2017-12-03T12:15:24Z,42.805,6.029,13.2934,4.59953,2472.077,2017-12-03T14:16:53Z
2017-12-03T12:18:27Z,42.805,6.029,13.2934,4.59955,2472.069,2017-12-03T14:19:56Z
2017-12-03T12:21:30Z,42.805,6.029,13.2937,4.59954,2472.092,2017-12-03T14:22:59Z
2017-12-03T12:24:33Z,42.805,6.029,13.2933,4.59953,2472.092,2017-12-03T14:26:02Z
2017-12-03T12:27:36Z,42.805,6.029,13.2939,4.59953,2472.055,2017-12-03T14:29:05Z
2017-12-03T12:30:39Z,42.805,6.029,13.2939,4.59954,2472.047,2017-12-03T14:32:08Z
2017-12-03T12:33:42Z,42.805,6.029,13.2939,4.59954,2472.077,2017-12-03T14:35:10Z
2017-12-03T12:36:44Z,42.805,6.029,13.2939,4.59955,2472.069,2017-12-03T14:38:13Z
2017-12-03T12:39:47Z,42.805,6.029,13.2940,4.59955,2472.092,2017-12-03T14:41:16Z
2017-12-03T12:42:50Z,42.805,6.029,13.2934,4.59954,2472.077,2017-12-03T14:44:19Z
2017-12-03T12:45:53Z,42.805,6.029,13.2940,4.59954,2472.092,2017-12-03T14:47:22Z
2017-12-03T12:48:56Z,42.805,6.029,13.2939,4.59953,2472.024,2017-12-03T14:50:25Z
2017-12-03T12:51:59Z,42.805,6.029,13.2938,4.59954,2472.069,2017-12-03T14:53:28Z
2017-12-03T12:55:02Z,42.805,6.029,13.2937,4.59954,2472.047,2017-12-03T14:56:31Z
2017-12-03T12:58:05Z,42.805,6.029,13.2935,4.59956,2472.032,2017-12-03T14:59:34Z
2017-12-03T13:01:08Z,42.805,6.029,13.2935,4.59954,2472.032,2017-12-03T15:02:36Z
2017-12-03T13:04:10Z,42.805,6.029,13.2940,4.59954,2472.032,2017-12-03T15:05:39Z
2017-12-03T13:07:13Z,42.805,6.029,13.2935,4.59953,2472.055,2017-12-03T15:08:42Z
2017-12-03T13:10:16Z,42.805,6.029,13.2934,4.59955,2472.055,2017-12-03T15:11:45Z
2017-12-03T13:13:19Z,42.805,6.029,13.2934,4.59954,2472.069,2017-12-03T15:14:48Z
2017-12-03T13:16:22Z,42.805,6.029,13.2935,4.59954,2472.024,2017-12-03T15:17:51Z
2017-12-03T13:19:25Z,42.805,6.029,13.2937,4.59954,2472.092,2017-12-03T15:20:54Z
2017-12-03T13:22:28Z,42.805,6.029,13.2936,4.59955,2472.077,2017-12-03T15:23:57Z
2017-12-03T13:25:31Z,42.805,6.029,13.2937,4.59954,2472.032,2017-12-03T15:27:00Z
2017-12-03T13:28:34Z,42.805,6.029,13.2937,4.59956,2472.024,2017-12-03T15:30:03Z
2017-12-03T13:31:36Z,42.805,6.029,13.2935,4.59954,2472.069,2017-12-03T15:33:05Z
2017-12-03T13:34:39Z,42.805,6.029,13.2942,4.59954,2472.062,2017-12-03T15:36:08Z
2017-12-03T13:37:42Z,42.805,6.029,13.2936,4.59954,2472.047,2017-12-03T15:39:11Z
2017-12-03T13:40:45Z,42.805,6.029,13.2935,4.59954,2472.024,2017-12-03T15:42:14Z
2017-12-03T13:43:48Z,42.805,6.029,13.2935,4.59954,2472.024,2017-12-03T15:45:17Z
2017-12-03T13:46:51Z,42.805,6.029,13.2936,4.59954,2472.032,2017-12-03T15:48:20Z
2017-12-03T13:49:54Z,42.805,6.029,13.2937,4.59954,2472.047,2017-12-03T15:51:23Z
2017-12-03T13:52:57Z,42.805,6.029,13.2939,4.59956,2472.01,2017-12-03T15:54:26Z
2017-12-03T13:56:00Z,42.805,6.029,13.2935,4.59953,2472.069,2017-12-03T15:57:29Z
2017-12-03T13:59:03Z,42.805,6.029,13.2936,4.59954,2472.069,2017-12-03T16:00:31Z
2017-12-03T14:02:05Z,42.805,6.029,13.2939,4.59953,2472.069,2017-12-03T16:03:34Z
2017-12-03T14:05:08Z,42.805,6.029,13.2937,4.59954,2471.987,2017-12-03T16:06:37Z
2017-12-03T14:08:11Z,42.805,6.029,13.2935,4.59954,2472.032,2017-12-03T16:09:40Z
2017-12-03T14:11:14Z,42.805,6.029,13.2938,4.59955,2472.055,2017-12-03T16:12:43Z
2017-12-03T14:14:17Z,42.805,6.029,13.2937,4.59955,2472.032,2017-12-03T16:15:46Z
2017-12-03T14:17:20Z,42.805,6.029,13.2940,4.59955,2472.055,2017-12-03T16:18:49Z
2017-12-03T14:20:23Z,42.805,6.029,13.2935,4.59954,2472.069,2017-12-03T16:21:52Z
2017-12-03T14:23:26Z,42.805,6.029,13.2940,4.59954,2472.047,2017-12-03T16:24:55Z
2017-12-03T14:26:29Z,42.805,6.029,13.2939,4.59954,2472.069,2017-12-03T16:27:57Z
2017-12-03T14:29:31Z,42.805,6.029,13.2938,4.59954,2472.069,2017-12-03T16:31:00Z
2017-12-03T14:32:34Z,42.805,6.029,13.2937,4.59956,2472.047,2017-12-03T16:34:03Z
2017-12-03T14:35:37Z,42.805,6.029,13.2937,4.59955,2472.032,2017-12-03T16:37:06Z
2017-12-03T14:38:40Z,42.805,6.029,13.2937,4.59955,2472.047,2017-12-03T16:40:09Z
2017-12-03T14:41:43Z,42.805,6.029,13.2939,4.59956,2472.032,2017-12-03T16:43:12Z
2017-12-03T14:44:46Z,42.805,6.029,13.2935,4.59954,2472.047,2017-12-03T16:46:15Z
2017-12-03T14:47:49Z,42.805,6.029,13.2939,4.59954,2472.055,2017-12-03T16:49:18Z
2017-12-03T14:50:52Z,42.805,6.029,13.2935,4.59954,2472.032,2017-12-03T16:52:21Z
2017-12-03T14:53:55Z,42.805,6.029,13.2939,4.59955,2472.047,2017-12-03T16:55:23Z
2017-12-03T14:56:57Z,42.805,6.029,13.2939,4.59954,2472.092,2017-12-03T16:58:26Z